• In Moldova, Republic
  • List of Countries
  • For 7 days
  • Water Temperature
  • Satellite Maps
  • Weather Map
  • Weather Widgets
  • user-avatar
    Login

    Hourly Weather Melbourne

    Today, 28 March, Tuesday

    Time Temperature Precipitation Wind Pressure Humidity
    00:00 +15°C° 0 mm 2 mps 758 mmHg 78%
    01:00 +14°C° 0 mm 2 mps 758 mmHg 80%
    02:00 +14°C° 0 mm 2 mps 758 mmHg 81%
    03:00 +14°C° 0 mm 2 mps 758 mmHg 82%
    04:00 +13°C° 0 mm 2 mps 758 mmHg 85%
    05:00 +13°C° 0 mm 2 mps 759 mmHg 85%
    06:00 +13°C° 0 mm 2 mps 759 mmHg 86%
    07:00 +13°C° 0 mm 2 mps 759 mmHg 87%
    08:00 +15°C° 0 mm 2 mps 759 mmHg 76%
    09:00 +18°C° 0 mm 2 mps 759 mmHg 66%
    10:00 +20°C° 0 mm 2 mps 759 mmHg 55%
    11:00 +23°C° 0 mm 1 mps 759 mmHg 50%
    12:00 +24°C° 0 mm 1 mps 758 mmHg 44%
    13:00 +25°C° 0 mm 1 mps 758 mmHg 39%
    14:00 +26°C° 0 mm 1 mps 758 mmHg 39%
    15:00 +26°C° 0 mm 1 mps 757 mmHg 39%
    16:00 +25°C° 0 mm 1 mps 757 mmHg 42%
    17:00 +22°C° 0 mm 1 mps 757 mmHg 51%
    18:00 +20°C° 0 mm 1 mps 757 mmHg 60%
    19:00 +16°C° 0 mm 1 mps 757 mmHg 69%
    20:00 +16°C° 0 mm 1 mps 757 mmHg 69%
    21:00 +16°C° 0 mm 1 mps 757 mmHg 69%
    22:00 +16°C° 0 mm 1 mps 757 mmHg 68%
    23:00 +16°C° 0 mm 2 mps 757 mmHg 68%

    Tomorrow, 29 March, Wednesday

    Time Temperature Precipitation Wind Pressure Humidity
    00:00 +16°C° 0 mm 2 mps 757 mmHg 68%
    01:00 +16°C° 0 mm 2 mps 757 mmHg 68%
    02:00 +16°C° 0 mm 2 mps 756 mmHg 68%
    03:00 +16°C° 0 mm 2 mps 756 mmHg 68%
    04:00 +16°C° 0 mm 2 mps 756 mmHg 68%
    05:00 +16°C° 0 mm 2 mps 756 mmHg 68%
    06:00 +16°C° 0 mm 2 mps 756 mmHg 67%
    07:00 +16°C° 0 mm 2 mps 756 mmHg 67%
    08:00 +18°C° 0 mm 3 mps 755 mmHg 60%
    09:00 +20°C° 0 mm 3 mps 755 mmHg 53%
    10:00 +23°C° 0 mm 4 mps 755 mmHg 46%
    11:00 +25°C° 0 mm 4 mps 754 mmHg 42%
    12:00 +26°C° 0 mm 4 mps 753 mmHg 39%
    13:00 +28°C° 0 mm 4 mps 753 mmHg 36%
    14:00 +28°C° 0 mm 4 mps 752 mmHg 36%
    15:00 +28°C° 0 mm 4 mps 752 mmHg 36%
    16:00 +28°C° 0 mm 4 mps 751 mmHg 37%
    17:00 +25°C° 0.2 mm 5 mps 752 mmHg 48%
    18:00 +21°C° 0.2 mm 5 mps 753 mmHg 59%
    19:00 +19°C° 0.2 mm 5 mps 754 mmHg 70%
    20:00 +16°C° 0.7 mm 5 mps 755 mmHg 76%
    21:00 +15°C° 0.7 mm 4 mps 756 mmHg 83%
    22:00 +13°C° 0.7 mm 3 mps 757 mmHg 90%
    23:00 +13°C° 1 mm 3 mps 757 mmHg 91%

    Day after tomorrow, 30 March, Thursday

    Time Temperature Precipitation Wind Pressure Humidity
    00:00 +13°C° 1 mm 3 mps 758 mmHg 91%
    01:00 +12°C° 1 mm 3 mps 758 mmHg 92%
    02:00 +12°C° 0.2 mm 3 mps 758 mmHg 92%
    03:00 +11°C° 0.2 mm 3 mps 758 mmHg 92%
    04:00 +11°C° 0.2 mm 3 mps 759 mmHg 91%
    05:00 +10°C° 0.1 mm 3 mps 759 mmHg 91%
    06:00 +10°C° 0.1 mm 3 mps 760 mmHg 91%
    07:00 +10°C° 0.1 mm 3 mps 761 mmHg 92%
    08:00 +11°C° 0.1 mm 3 mps 761 mmHg 85%
    09:00 +12°C° 0.1 mm 3 mps 762 mmHg 78%
    10:00 +14°C° 0.1 mm 4 mps 762 mmHg 72%
    11:00 +14°C° 0.2 mm 4 mps 762 mmHg 67%
    12:00 +15°C° 0.2 mm 4 mps 762 mmHg 62%
    13:00 +17°C° 0.2 mm 4 mps 762 mmHg 58%
    14:00 +17°C° 0.1 mm 4 mps 762 mmHg 57%
    15:00 +17°C° 0.1 mm 4 mps 762 mmHg 57%
    16:00 +15°C° 0.1 mm 5 mps 762 mmHg 56%
    17:00 +14°C° 0 mm 4 mps 763 mmHg 61%
    18:00 +13°C° 0 mm 4 mps 764 mmHg 66%
    19:00 +12°C° 0 mm 3 mps 764 mmHg 72%
    20:00 +12°C° 0 mm 3 mps 765 mmHg 73%
    21:00 +12°C° 0 mm 3 mps 765 mmHg 74%
    22:00 +12°C° 0 mm 3 mps 766 mmHg 75%
    23:00 +11°C° 0 mm 3 mps 766 mmHg 76%

    31 March, Friday

    Time Temperature Precipitation Wind Pressure Humidity
    00:00 +12°C° 0 mm 2 mps 765 mmHg 77%
    01:00 +12°C° 0 mm 2 mps 765 mmHg 77%
    02:00 +10°C° 0 mm 2 mps 765 mmHg 79%
    03:00 +10°C° 0 mm 2 mps 765 mmHg 81%
    04:00 +10°C° 0 mm 1 mps 764 mmHg 83%
    05:00 +10°C° 0 mm 1 mps 765 mmHg 84%
    06:00 +10°C° 0 mm 1 mps 765 mmHg 85%
    07:00 +10°C° 0 mm 1 mps 765 mmHg 86%
    08:00 +12°C° 0 mm 1 mps 766 mmHg 77%
    09:00 +14°C° 0 mm 2 mps 766 mmHg 67%
    10:00 +16°C° 0 mm 2 mps 766 mmHg 58%
    11:00 +16°C° 0 mm 2 mps 765 mmHg 56%
    12:00 +17°C° 0 mm 2 mps 765 mmHg 53%
    13:00 +18°C° 0 mm 2 mps 764 mmHg 51%
    14:00 +18°C° 0 mm 2 mps 764 mmHg 51%
    15:00 +18°C° 0 mm 2 mps 763 mmHg 52%
    16:00 +18°C° 0 mm 2 mps 763 mmHg 52%
    17:00 +16°C° 0 mm 2 mps 763 mmHg 61%
    18:00 +14°C° 0 mm 1 mps 763 mmHg 69%
    19:00 +12°C° 0 mm 1 mps 763 mmHg 78%
    20:00 +11°C° 0 mm 1 mps 764 mmHg 82%
    21:00 +11°C° 0 mm 1 mps 764 mmHg 85%
    22:00 +10°C° 0 mm 1 mps 764 mmHg 89%
    23:00 +10°C° 0 mm 1 mps 764 mmHg 89%

    1 April, Saturday

    Time Temperature Precipitation Wind Pressure Humidity
    00:00 +10°C° 0 mm 1 mps 763 mmHg 89%
    01:00 +10°C° 0 mm 1 mps 763 mmHg 89%
    02:00 +8°C° 0 mm 2 mps 763 mmHg 89%
    03:00 +8°C° 0 mm 2 mps 763 mmHg 90%
    04:00 +8°C° 0 mm 2 mps 763 mmHg 90%
    05:00 +8°C° 0 mm 2 mps 763 mmHg 91%
    06:00 +9°C° 0 mm 2 mps 763 mmHg 92%
    07:00 +9°C° 0 mm 2 mps 764 mmHg 93%
    08:00 +12°C° 0.1 mm 2 mps 764 mmHg 87%
    09:00 +13°C° 0.1 mm 3 mps 764 mmHg 81%
    10:00 +16°C° 0.1 mm 3 mps 765 mmHg 75%
    11:00 +17°C° 0.1 mm 4 mps 765 mmHg 70%
    12:00 +17°C° 0.1 mm 4 mps 765 mmHg 65%
    13:00 +18°C° 0.1 mm 4 mps 765 mmHg 59%
    14:00 +17°C° 0 mm 4 mps 765 mmHg 60%
    15:00 +17°C° 0 mm 4 mps 765 mmHg 60%
    16:00 +15°C° 0 mm 4 mps 765 mmHg 60%
    17:00 +14°C° 0 mm 3 mps 766 mmHg 65%
    18:00 +13°C° 0 mm 3 mps 767 mmHg 70%
    19:00 +12°C° 0 mm 3 mps 767 mmHg 75%
    20:00 +13°C° 0 mm 2 mps 768 mmHg 76%
    21:00 +12°C° 0 mm 2 mps 768 mmHg 77%
    22:00 +12°C° 0 mm 2 mps 769 mmHg 78%
    23:00 +12°C° 0.1 mm 2 mps 769 mmHg 80%

    2 April, Sunday

    Time Temperature Precipitation Wind Pressure Humidity
    00:00 +12°C° 0.1 mm 2 mps 768 mmHg 81%
    01:00 +10°C° 0.1 mm 2 mps 768 mmHg 83%
    02:00 +10°C° 0 mm 2 mps 769 mmHg 83%
    03:00 +10°C° 0 mm 2 mps 769 mmHg 84%
    04:00 +10°C° 0 mm 2 mps 769 mmHg 85%
    05:00 +10°C° 0 mm 2 mps 769 mmHg 84%
    06:00 +10°C° 0 mm 2 mps 770 mmHg 84%
    07:00 +10°C° 0 mm 2 mps 770 mmHg 83%
    08:00 +13°C° 0 mm 2 mps 771 mmHg 76%
    09:00 +14°C° 0 mm 2 mps 771 mmHg 69%
    10:00 +16°C° 0 mm 3 mps 771 mmHg 61%
    11:00 +16°C° 0.1 mm 3 mps 771 mmHg 61%
    12:00 +17°C° 0.1 mm 3 mps 771 mmHg 60%
    13:00 +17°C° 0.1 mm 3 mps 771 mmHg 59%
    14:00 +17°C° 0.1 mm 3 mps 771 mmHg 60%
    15:00 +17°C° 0.1 mm 3 mps 771 mmHg 61%
    16:00 +17°C° 0.1 mm 3 mps 770 mmHg 62%
    17:00 +16°C° 0 mm 3 mps 771 mmHg 67%
    18:00 +13°C° 0 mm 3 mps 771 mmHg 73%
    19:00 +12°C° 0 mm 3 mps 772 mmHg 78%
    20:00 +12°C° 0 mm 3 mps 772 mmHg 79%
    21:00 +11°C° 0 mm 3 mps 772 mmHg 80%
    22:00 +11°C° 0 mm 3 mps 773 mmHg 81%
    23:00 +12°C° 0 mm 2 mps 773 mmHg 82%
    Show more